[[{"header":{"parameterUnit":"m.s-1","parameterCategory":1,"la1":30.2992,"la2":30.254,"lo1":-89.0895,"lo2":-89.0443,"dy":0.0025,"dx":0.0025,"nx":19,"ny":19,"refTime":"2026-03-07T03:00:00:Z","depth":0,"parameterNumber":2,"parameterNumberName":"U-component_of_WINDS"},"data":[0,0,0,-4.2744,-4.2749,-4.2961,-4.2962,-4.3222,-4.3224,0,0,0,0,0,0,0,0,0,0,0,-4.2673,-4.2675,-4.2744,-4.2749,-4.2961,-4.2962,-4.3222,-4.3224,0,0,0,0,0,0,0,0,0,0,0,-4.2673,-4.2674,-4.2676,-4.275,-4.296,-4.2962,-4.3221,-4.3066,0,0,0,0,0,0,0,0,0,0,-4.2862,-4.2788,-4.2674,-4.2676,-4.2751,-4.296,-4.2962,-4.3058,-4.3075,-4.3121,0,-4.3158,0,-4.3195,-4.3241,-4.3242,0,0,0,-4.2756,-4.2773,-4.2838,-4.2677,-4.2753,-4.296,-4.2867,-4.3068,-4.3087,-4.3144,-4.3162,-4.3172,-4.32,-4.3243,-4.3244,-4.3483,-4.3483,0,0,-4.2744,-4.2707,-4.2824,-4.285,-4.2814,-4.286,-4.2873,-4.308,-4.3098,-4.3163,-4.3178,-4.3204,-4.3244,-4.3246,-4.3482,-4.3483,0,0,0,-4.2706,-4.2699,-4.2759,-4.2839,-4.2878,-4.2866,-4.2882,-4.3089,-4.3111,-4.3181,-4.3207,-4.3246,-4.3249,-4.3481,-4.3482,-4.3484,0,0,0,-4.2699,-4.2677,-4.2753,-4.2733,-4.2874,-4.2985,-4.2885,-4.3097,-4.3121,-4.3206,-4.3246,-4.3251,-4.348,-4.3482,-4.3482,-4.349,0,0,0,-4.2662,-4.2673,-4.27,-4.273,-4.282,-4.2983,-4.3018,-4.3103,-4.3137,-4.3242,-4.3252,-4.348,-4.3481,-4.348,-4.3487,-4.354,0,0,0,-4.2613,-4.27,-4.27,-4.2807,-4.2818,-4.2983,-4.3017,-4.3142,-4.3232,-4.3247,-4.348,-4.3482,-4.348,-4.3486,-4.3538,-4.3575,-4.3588,0,0,-4.2702,-4.2709,-4.2776,-4.2782,-4.2936,-4.2953,-4.311,-4.3229,-4.3274,-4.3411,-4.3417,-4.3482,-4.3487,-4.354,-4.3679,-4.3689,0,0,0,-4.2791,-4.2838,-4.2888,-4.2971,-4.3064,-4.3144,-4.3243,-4.3287,-4.3405,-4.3336,-4.3519,-4.3523,-4.3555,-4.3575,-4.3583,-4.3613,-4.349,-4.349,-4.349,-4.2862,-4.2915,-4.3028,-4.3106,-4.3188,-4.3289,-4.3361,-4.3439,-4.3468,-4.3511,-4.355,-4.3629,-4.365,-4.3657,-4.3687,-4.3578,-4.3578,-4.3578,-4.3578,-4.2995,-4.3068,-4.3108,-4.323,-4.3286,-4.3391,-4.3495,-4.3513,-4.3619,-4.3603,-4.3634,-4.3608,-4.3666,-4.3695,-4.3579,-4.3579,-4.3578,-4.3578,-4.3578,-4.3044,-4.3088,-4.3141,-4.3268,-4.3362,-4.344,-4.3541,-4.359,-4.3637,-4.3668,-4.3714,-4.3714,-4.3718,-4.3687,-4.3688,-4.3688,-4.3688,-4.3688,-4.3688,-4.3072,-4.3132,-4.3209,-4.3316,-4.3377,-4.3464,-4.357,-4.3632,-4.3713,-4.3741,-4.3741,-4.3766,-4.3663,-4.3633,-4.3693,-4.3692,-4.3691,-4.3691,-4.3691,-4.318,-4.3164,-4.3283,-4.3344,-4.3474,-4.3563,-4.3627,-4.3749,-4.3808,-4.3856,-4.3877,-4.3793,-4.3804,-4.3798,-4.3774,-4.3866,-4.3866,-4.3866,-4.3866,-4.3219,-4.323,-4.3363,-4.3457,-4.3556,-4.3625,-4.376,-4.3844,-4.393,-4.397,-4.3965,-4.3939,-4.3931,-4.3947,-4.3937,-4.3915,-4.4042,-4.4042,-4.4042,-4.3287,-4.3311,-4.3414,-4.3495,-4.3602,-4.3693,-4.3821,-4.393,-4.4024,-4.405,-4.4002,-4.3995,-4.3954,-4.3938,-4.3957,-4.3941,-4.3902,0,0]},{"header":{"parameterUnit":"m.s-1","parameterCategory":1,"la1":30.2992,"la2":30.254,"lo1":-89.0895,"lo2":-89.0443,"dy":0.0025,"dx":0.0025,"nx":19,"ny":19,"refTime":"2026-03-07T03:00:00:Z","depth":0,"parameterNumber":3,"parameterNumberName":"V-component_of_WINDS"},"data":[0,0,0,3.0816,3.0818,3.0961,3.0961,3.1134,3.1135,0,0,0,0,0,0,0,0,0,0,0,3.0766,3.0767,3.0815,3.0819,3.0961,3.0961,3.1133,3.1135,0,0,0,0,0,0,0,0,0,0,0,3.0766,3.0767,3.0768,3.0819,3.096,3.0961,3.1133,3.1029,0,0,0,0,0,0,0,0,0,0,3.0893,3.084,3.0767,3.0768,3.082,3.096,3.0961,3.1024,3.1036,3.1065,0,3.1088,0,3.1114,3.1146,3.1146,0,0,0,3.0824,3.0831,3.0876,3.0768,3.0821,3.096,3.0898,3.1031,3.1044,3.108,3.109,3.1097,3.1117,3.1147,3.1148,3.1298,3.1298,0,0,3.0816,3.0788,3.0867,3.0884,3.086,3.0893,3.0902,3.1039,3.1049,3.1091,3.1101,3.112,3.1148,3.1149,3.1298,3.1298,0,0,0,3.079,3.0782,3.0824,3.0876,3.0903,3.0897,3.0908,3.1043,3.1059,3.1103,3.1122,3.1149,3.1151,3.1297,3.1298,3.1295,0,0,0,3.0786,3.0767,3.082,3.0805,3.09,3.0974,3.0908,3.1049,3.1065,3.1121,3.1149,3.1152,3.1297,3.1297,3.1294,3.1298,0,0,0,3.076,3.0764,3.0782,3.0803,3.0863,3.0972,3.0996,3.1053,3.1077,3.1146,3.1153,3.1296,3.1297,3.1293,3.1296,3.1331,0,0,0,3.0724,3.0775,3.0782,3.0848,3.0862,3.0969,3.0996,3.1077,3.1136,3.115,3.1297,3.1298,3.1293,3.1296,3.133,3.1357,3.1365,0,0,3.0774,3.078,3.0822,3.0832,3.0931,3.0949,3.1049,3.1129,3.1161,3.1251,3.1255,3.1294,3.1296,3.1331,3.1416,3.1422,0,0,0,3.0828,3.0857,3.089,3.0946,3.1009,3.1065,3.1133,3.1164,3.1242,3.1201,3.1316,3.1318,3.134,3.1354,3.1359,3.1381,3.1302,3.1302,3.1302,3.0858,3.0898,3.097,3.1027,3.1081,3.1154,3.1202,3.1256,3.1278,3.1305,3.1332,3.1378,3.1394,3.1398,3.142,3.1348,3.1348,3.1348,3.1348,3.0937,3.0986,3.1017,3.1098,3.1141,3.121,3.1283,3.1297,3.1369,3.136,3.1381,3.137,3.1403,3.1425,3.1348,3.1348,3.1348,3.1348,3.1348,3.0962,3.0993,3.103,3.1118,3.1181,3.1238,3.1307,3.1342,3.1376,3.1397,3.1432,3.1432,3.1438,3.1411,3.1411,3.1411,3.1411,3.1412,3.1412,3.0974,3.1016,3.1069,3.1144,3.1187,3.1248,3.1323,3.1367,3.1424,3.1445,3.1446,3.1468,3.1398,3.1381,3.1414,3.1414,3.1414,3.1413,3.1413,3.1041,3.1032,3.1114,3.1157,3.125,3.1313,3.1359,3.1445,3.1486,3.152,3.1538,3.1481,3.149,3.1486,3.1473,3.1528,3.1528,3.1528,3.1528,3.1064,3.1072,3.1167,3.1234,3.1304,3.1354,3.1449,3.151,3.1571,3.16,3.1598,3.1582,3.1576,3.159,3.1583,3.1571,3.165,3.165,3.165,3.1109,3.1127,3.1199,3.1259,3.1336,3.1401,3.1493,3.157,3.1638,3.1656,3.1624,3.1619,3.1595,3.1584,3.1601,3.1591,3.1569,0,0]}]]